COSMOS 1275 DEB, 12740

Orbit data source: Space-Track

COSMOS 1275 DEB, 12740 is space debris in LEO originally from a launch on Thu, 04 Jun 1981 UTC launched from the Plesetsk Missile And Space Complex (PKMTR). Debris objects in space refer to the collection of defunct objects orbiting the Earth. Examples of debris include non-operational satellites, rocket bodies, and fragments generated from explosions, collisions, or faulty payload assembly.

Loading next visibility...
Identifier
12740, 1981-053CH
Orbit
LEO
Country
Flag of CISCIS
Related business
Manufacturer
Unknown
Mission
Spacecraft
Bus & Motor
Unknown
Mass
Unknown
Launch date (UTC)
1981-06-04 (45 years ago)
Launch vehicle
Unknown
Launch site
Plesetsk Missile And Space Complex (PKMTR)
Object type
Payload
Rocket body
Debris
Shape & HBR
Unknown shape, 0.1 m
Radar Cross Section
Medium (>0.1 m² and <1 m²)

Expand to show TLE details & history
Last TLE update: 2 days ago

TLE from 2 days ago
0 COSMOS 1275 DEB
1 12740U 81053CH  26171.08887939  .00003401  00000-0  10439-2 0  9997
2 12740  82.8356 199.0943 0016615 112.6944 274.7779 14.41351988297745
Epoch: 2026-06-20T02:07Z
TLE epoch observation values (Epoch: 2026-06-20T02:07:59.179Z)
Latitude
27.09083°
Longitude
-97.54398°
Altitude
756.441 km
Speed
7.479 km/s
True Right ascension
13h 31m 02s
True Declination
26° 57' 06"
Sunlit
Object was in daylight at epoch
Visualization orbit readout
Latitude
Unknown
Longitude
Unknown
Altitude
Unknown
Speed
Unknown
Apparent Right ascension
Unknown
Apparent Declination
Unknown
Sunlit
N/A
Visualization observer readout
Local Sidereal Time
22:49:42
Azimuth
Unknown
Elevation
Unknown
Doppler factor
Unknown
Orbital elements
Apogee altitude
762.942 km
Perigee altitude
739.252 km
Semi-major axis
7,129.234 km
Eccentricity
0.00166
Inclination
82.8356°
RAAN
199.0943°
Arg. of periapsis
112.6944°
True anomaly
274.58814°
Mean anomaly
274.7779°
Eccentric anomaly
274.68302°
Mean motion
3.60561 °/min
Orbital period
99.84 mins
BSTAR
0.0010439
Loading maneuver chart data...
Computing Atmospheric mass density...

Documentation

Showing up to 5 results
|